Find Starlink 30446

NORAD ID: 57872 Int'l Des: 2023-144 Owner: SPXS Country: US Constellation: starlink operational
LEOCIRCULAR

現在のビュー

3D地球を読み込み中...

About Starlink 30446

Starlink 30446 (NORAD 57872) is a starlink constellation satellite (v2 mini) launched Sep 16, 2023 by SPXS of US. It operates in LEO, CIRCULAR orbit with a mass of 730.00 kg.

Starlink 30446について

説明を読み込み中...

次回通過

Passes for default location (London). Set your location on the main map for personalized predictions.

高度履歴

Loading altitude history...

軌道要素

1 57872U 23144J 26171.02235895 .00000888 00000-0 41801-4 0 9996
2 57872 43.0011 53.1572 0001401 260.7827 99.2866 15.27576427153185
Epoch: Jun 20, 2026 • Age: 12 hours

現在のステータス

高度 486.7 km
速度 7.62 km/s
衛星直下点 -19.08°S, 156.83°E
打ち上げ日 Sep 16, 2023
運用期間 2.7 years
タイプ internet

技術仕様

分類 Payload
質量 730.00 kg
乾燥質量 700.00 kg
総質量 730.00 kg
長さ 0.30 m
直径 4.10 m
スパン 29.00 m
形状 Box + pan
製造者 SPXS
バスタイプ Starlink V2M
フェーズステータス In Orbit
所有者/国 SPXS/US

Most Searched